Location: Campillo
(40.8621°N, 4.2488°W)
Time: 11:48:48
(UTC+00:00)

NOSS 3-4 (C) - Visible Passes

Search period start: 24 September 2021 00:00
Search period end: 04 October 2021 00:00
Orbit: 868 x 1344 km, 63.4° (Epoch: 05 September)

Date Brightness Start Highest point End Pass type
(mag) Time Alt. Az. Time Alt. Az. Time Alt. Az.
24 Sep 3.7 05:36:54 10° SSW 05:42:37 70° ESE 05:48:42 10° NE visible
25 Sep 4.6 04:52:39 10° S 04:58:00 41° ESE 05:03:37 10° NE visible
26 Sep 5.4 04:09:02 10° SSE 04:13:32 24° ESE 04:18:11 10° ENE visible
27 Sep 5.9 03:26:38 10° SE 03:29:11 13° ESE 03:31:47 10° E visible
27 Sep 3.3 05:13:14 10° SW 05:19:00 87° NW 05:25:11 10° NE visible
28 Sep 3.9 04:29:00 12° SSW 04:34:19 57° ESE 04:40:15 10° NE visible
29 Sep 4.7 03:46:30 19° SSE 03:49:45 33° ESE 03:55:04 10° NE visible
29 Sep 3.9 05:34:57 10° WSW 05:40:25 42° NW 05:46:18 10° NNE visible
30 Sep 5.3 03:03:52 17° SE 03:05:20 19° ESE 03:09:22 10° ENE visible
30 Sep 3.3 04:51:21 20° SW 04:55:27 66° NW 05:01:36 10° NNE visible
01 Oct 3.3 04:08:37 42° SSW 04:10:40 78° ESE 04:16:47 10° NE visible
02 Oct 4.0 03:25:46 46° SE 03:26:01 46° ESE 03:31:46 10° NE visible
02 Oct 4.2 05:13:14 17° W 05:17:02 33° NW 05:22:37 10° NNE visible
03 Oct 5.2 02:42:50 24° E 02:42:50 24° E 02:46:25 10° ENE visible
03 Oct 3.6 04:30:19 39° W 04:31:58 50° NW 04:37:59 10° NNE visible
